Notices

What's New in latest Release from April 7th, 2021:

- Updated Glossary, including Speed of Maximum Gust, and Total Hourly Precipitation

- Updated national and regional climate services offices contacts and prices information

- Addition of station inventory lists for 1981-2010, 1971-2000, and 1961-1990 Normals.

If you haven't already, please take our survey and provide feedback about our website: https://eccc.sondage-survey.ca/f/LanguageSelection.aspx?s=442ca660-fcf1-47c0-95a9-59707d6fd709

Hourly Data Report for February 11, 2003

TORONTO CITY
ONTARIO

43°40'00.000" N
79°24'00.000" W
112.50 m
6158355
71508
XTO

Download Data

Hourly Data (February 2003)
Hourly Data Report for February 11, 2003
TIME
LST
Temp Definition
°C
Dew Point Definition
°C
Rel Hum Definition
%
Precip. Amount Definition
mm

Wind Dir Definition
10's deg

Wind Spd Definition
km/h
Visibility Definition
km
Stn Press Definition
kPa
Hmdx Definition


Wind Chill Definition


Weather Definition


00:00
01:00
02:00 -17.8 -25.2 52     0 LegendMM 100.09     LegendNANA
03:00 -18.5 -25.2 56     0 LegendMM 100.18     LegendNANA
04:00 -18.9 -27.0 49     0 LegendMM 100.15     LegendNANA
05:00 -19.3 -26.2 54     0 LegendMM 100.19     LegendNANA
06:00 -19.1 -25.8 55     0 LegendMM 100.18     LegendNANA
07:00 -18.8 -25.5 55     0 LegendMM 100.15     LegendNANA
08:00
09:00 -16.8 -20.7 72     0 LegendMM 99.98     LegendNANA
10:00 -14.3 -17.1 79     0 LegendMM 99.82     LegendNANA
11:00
12:00 -10.8 -14.0 77     0 LegendMM 99.64     LegendNANA
13:00 -10.2 -16.2 61     0 LegendMM 99.50     LegendNANA
14:00 -9.1 -15.7 59     0 LegendMM 99.36     LegendNANA
15:00 -8.3 -15.0 58     0 LegendMM 99.22     LegendNANA
16:00 -7.9 -12.9 67     0 LegendMM 99.15     LegendNANA
17:00 -7.1 -12.8 64     0 LegendMM 99.05     LegendNANA
18:00 -6.6 -10.9 71     0 LegendMM 98.98     LegendNANA
19:00 -6.1 -10.9 69     0 LegendMM 98.96     LegendNANA
20:00 -6.6 -10.0 77     0 LegendMM 98.94     LegendNANA
21:00 -6.5 -10.8 71     0 LegendMM 98.89     LegendNANA
22:00 -5.8 -11.4 65     0 LegendMM 98.75     LegendNANA
23:00 -5.6 -11.8 62     0 LegendMM 98.61     LegendNANA

Notes on Data Quality.

Legend

  • E = Estimated
  • M = Missing
  • NA = Not Available*
  • [empty] = Indicates an unobserved value
Date modified: